Tyler, TX

10:43 AM CDT on August 17, 2017 (GMT -0500)
Tyler Pounds

Weather History for KTYR - July, 2014

Change the Weather History Date:

Sunday, July 27, 2014

  Actual Average Record
Temperature  
Mean Temperature 87 °F 84 °F  
Max Temperature 96 °F 94 °F 105 °F (2011)
Min Temperature 78 °F 74 °F 65 °F (2004)
Degree Days  
Heating Degree Days 0 0  
Month to date heating degree days 0 0  
Since 1 June heating degree days 0 0  
Since 1 July heating degree days 0 0  
Cooling Degree Days 22 19  
Month to date cooling degree days 450 482  
Year to date cooling degree days 1311 1284  
Since 1 June cooling degree days 918 915  
Growing Degree Days 36 (Base 50)    
Moisture  
Dew Point 72 °F    
Average Humidity 64    
Maximum Humidity 85    
Minimum Humidity 43    
Precipitation  
Precipitation 0.00 in 0.05 in 7.88 in (1979)
Month to date precipitation 1.52 2.39  
Year to date precipitation 18.38 26.15  
Snow  
Snow 0.00 in - - ()
Month to date snowfall 0.0  
Since 1 June snowfall 0.0  
Since 1 July snowfall 0.0  
Snow Depth 0.00 in    
Sea Level Pressure  
Sea Level Pressure 30.01 in    
Wind  
Wind Speed 9 mph (SSW)    
Max Wind Speed 15 mph    
Max Gust Speed 20 mph    
Visibility 10 miles    
Events      
T = Trace of Precipitation, MM = Missing Value Source: NWS Daily Summary

Daily Weather History Graph

Daily Weather History Graph

Search for Another Location

Airport or City:

Trip Planner

Search our weather history database for the weather conditions in past years. The results will help you decide how hot, cold, wet, or windy it might be!

Date:

Astronomy

Jul. 27, 2014 Rise Set
Actual Time 6:32 AM CDT 8:22 PM CDT
Civil Twilight 6:05 AM CDT 8:49 PM CDT
Nautical Twilight 5:33 AM CDT 9:22 PM CDT
Astronomical Twilight 4:58 AM CDT 9:57 PM CDT
Moon 7:14 AM CDT (7/27) 8:40 PM CDT (7/27)
Length of Visible Light 14h 44m
Length of Day
13h 49m
New Moon, 1% of the Moon is Illuminated
Jul 27
New Moon
Aug 3
First Quarter
Aug 10
Full
Aug 17
Last Quarter
Aug 25
New

Hourly Weather History & Observations

Time (CDT) Temp. Heat Index Dew Point Humidity Pressure Visibility Wind Dir Wind Speed Gust Speed Precip Events Conditions
12:53 AM 81.0 °F 86.2 °F 73.9 °F 79% 29.98 in 10.0 mi South 8.1 mph - N/A   Clear
1:53 AM 81.0 °F 86.2 °F 73.9 °F 79% 29.98 in 10.0 mi South 9.2 mph - N/A   Clear
2:53 AM 81.0 °F 85.8 °F 73.0 °F 77% 29.98 in 10.0 mi SSW 12.7 mph - N/A   Clear
3:53 AM 80.1 °F 83.8 °F 72.0 °F 76% 29.99 in 10.0 mi SSW 10.4 mph - N/A   Clear
4:53 AM 79.0 °F - 73.0 °F 82% 29.99 in 10.0 mi SSW 11.5 mph - N/A   Clear
5:53 AM 78.1 °F - 73.0 °F 84% 29.99 in 10.0 mi South 10.4 mph - N/A   Clear
6:53 AM 78.1 °F - 73.9 °F 87% 30.01 in 10.0 mi SSW 9.2 mph - N/A   Mostly Cloudy
7:53 AM 80.1 °F 84.5 °F 73.9 °F 81% 30.03 in 10.0 mi SSW 10.4 mph - N/A   Mostly Cloudy
8:32 AM 80.6 °F 85.4 °F 73.4 °F 79% 30.06 in 10.0 mi SSW 12.7 mph - N/A   Scattered Clouds
8:53 AM 82.0 °F 87.9 °F 73.9 °F 76% 30.04 in 10.0 mi SW 11.5 mph - N/A   Scattered Clouds
9:53 AM 84.9 °F 90.7 °F 72.0 °F 65% 30.05 in 10.0 mi SSW 11.5 mph - N/A   Clear
10:53 AM 87.1 °F 92.8 °F 71.1 °F 59% 30.05 in 10.0 mi SW 10.4 mph - N/A   Clear
11:53 AM 89.1 °F 96.0 °F 72.0 °F 57% 30.04 in 10.0 mi South 10.4 mph - N/A   Clear
12:53 PM 91.0 °F 98.2 °F 72.0 °F 53% 30.03 in 10.0 mi SW 11.5 mph - N/A   Clear
1:53 PM 93.0 °F 100.7 °F 72.0 °F 50% 30.01 in 10.0 mi SSW 11.5 mph 17.3 mph N/A   Clear
2:53 PM 93.9 °F 100.3 °F 70.0 °F 46% 30.00 in 10.0 mi SSW 8.1 mph - N/A   Clear
3:53 PM 93.9 °F 99.1 °F 69.1 °F 44% 29.99 in 10.0 mi SSW 10.4 mph - N/A   Clear
4:53 PM 95.0 °F 100.7 °F 69.1 °F 43% 29.99 in 10.0 mi Variable 6.9 mph - N/A   Clear
5:53 PM 93.9 °F 100.3 °F 70.0 °F 46% 29.98 in 10.0 mi South 10.4 mph - N/A   Clear
6:53 PM 93.0 °F 100.1 °F 71.1 °F 49% 29.98 in 10.0 mi SSW 8.1 mph - N/A   Clear
7:53 PM 90.0 °F 97.9 °F 73.0 °F 57% 29.97 in 10.0 mi South 6.9 mph - N/A   Clear
8:53 PM 84.9 °F 91.4 °F 73.0 °F 67% 29.98 in 10.0 mi South 6.9 mph - N/A   Clear
9:53 PM 84.0 °F 90.2 °F 73.0 °F 69% 30.00 in 10.0 mi South 4.6 mph - N/A   Clear
10:53 PM 82.0 °F 87.9 °F 73.9 °F 76% 30.00 in 10.0 mi South 3.5 mph - N/A   Clear